Year,Month,Day,Hour,Minute,Value (Times are PST for temperature in C)
2015,08,22,00,01,14.00
2015,08,22,00,02,13.90
2015,08,22,00,03,13.90
2015,08,22,00,04,13.90
2015,08,22,00,06,13.90
2015,08,22,00,07,13.80
2015,08,22,00,09,13.80
2015,08,22,00,11,13.80
2015,08,22,00,12,13.80
2015,08,22,00,13,13.80
2015,08,22,00,14,13.80
2015,08,22,00,16,13.80
2015,08,22,00,17,13.80
2015,08,22,00,18,13.80
2015,08,22,00,19,13.80
2015,08,22,00,21,13.80
2015,08,22,00,22,13.80
2015,08,22,00,23,13.80
2015,08,22,00,24,13.80
2015,08,22,00,26,13.70
2015,08,22,00,27,13.80
2015,08,22,00,28,13.80
2015,08,22,00,29,13.80
2015,08,22,00,31,14.00
2015,08,22,00,32,14.00
2015,08,22,00,33,14.10
2015,08,22,00,34,14.10
2015,08,22,00,36,14.10
2015,08,22,00,37,14.00
2015,08,22,00,38,14.00
2015,08,22,00,39,14.00
2015,08,22,00,41,13.90
2015,08,22,00,42,13.90
2015,08,22,00,43,13.80
2015,08,22,00,44,13.80
2015,08,22,00,46,13.70
2015,08,22,00,47,13.70
2015,08,22,00,48,13.70
2015,08,22,00,49,13.70
2015,08,22,00,51,13.70
2015,08,22,00,52,13.70
2015,08,22,00,53,13.70
2015,08,22,00,54,13.70
2015,08,22,00,56,13.60
2015,08,22,00,57,13.60
2015,08,22,00,58,13.60
2015,08,22,00,59,13.50
2015,08,22,01,01,13.50
2015,08,22,01,02,13.40
2015,08,22,01,03,13.40
2015,08,22,01,04,13.40
2015,08,22,01,06,13.30
2015,08,22,01,07,13.30
2015,08,22,01,08,13.30
2015,08,22,01,09,13.30
2015,08,22,01,11,13.30
2015,08,22,01,12,13.30
2015,08,22,01,13,13.30
2015,08,22,01,14,13.30
2015,08,22,01,16,13.30
2015,08,22,01,17,13.30
2015,08,22,01,18,13.30
2015,08,22,01,19,13.30
2015,08,22,01,21,13.30
2015,08,22,01,22,13.30
2015,08,22,01,23,13.30
2015,08,22,01,24,13.30
2015,08,22,01,26,13.30
2015,08,22,01,27,13.30
2015,08,22,01,28,13.30
2015,08,22,01,29,13.30
2015,08,22,01,31,13.20
2015,08,22,01,32,13.20
2015,08,22,01,33,13.20
2015,08,22,01,34,13.20
2015,08,22,01,35,13.20
2015,08,22,01,36,13.20
2015,08,22,01,37,13.10
2015,08,22,01,38,13.10
2015,08,22,01,39,13.10
2015,08,22,01,40,13.10
2015,08,22,01,41,13.10
2015,08,22,01,42,13.10
2015,08,22,01,43,13.10
2015,08,22,01,44,13.00
2015,08,22,01,45,13.00
2015,08,22,01,46,13.00
2015,08,22,01,47,13.00
2015,08,22,01,48,13.00
2015,08,22,01,49,13.00
2015,08,22,01,50,13.00
2015,08,22,01,51,13.00
2015,08,22,01,52,13.00
2015,08,22,01,53,13.00
2015,08,22,01,54,13.00
2015,08,22,01,55,13.10
2015,08,22,01,56,13.10
2015,08,22,01,57,13.10
2015,08,22,01,58,13.20
2015,08,22,01,59,13.30
2015,08,22,02,00,13.30
2015,08,22,02,01,13.30
2015,08,22,02,02,13.30
2015,08,22,02,03,13.40
2015,08,22,02,04,13.40
2015,08,22,02,05,13.50
2015,08,22,02,06,13.50
2015,08,22,02,07,13.60
2015,08,22,02,08,13.60
2015,08,22,02,09,13.70
2015,08,22,02,10,13.70
2015,08,22,02,11,13.70
2015,08,22,02,12,13.70
2015,08,22,02,13,13.70
2015,08,22,02,14,13.70
2015,08,22,02,16,13.70
2015,08,22,02,17,13.70
2015,08,22,02,18,13.70
2015,08,22,02,19,13.70
2015,08,22,02,21,13.70
2015,08,22,02,22,13.70
2015,08,22,02,23,13.70
2015,08,22,02,24,13.80
2015,08,22,02,26,13.70
2015,08,22,02,27,13.70
2015,08,22,02,28,13.70
2015,08,22,02,29,13.70
2015,08,22,02,31,13.70
2015,08,22,02,32,13.70
2015,08,22,02,33,13.70
2015,08,22,02,34,13.70
2015,08,22,02,36,13.70
2015,08,22,02,37,13.70
2015,08,22,02,38,13.70
2015,08,22,02,39,13.70
2015,08,22,02,41,13.70
2015,08,22,02,42,13.70
2015,08,22,02,43,13.70
2015,08,22,02,44,13.70
2015,08,22,02,46,13.70
2015,08,22,02,47,13.70
2015,08,22,02,48,13.70
2015,08,22,02,49,13.70
2015,08,22,02,51,13.70
2015,08,22,02,52,13.70
2015,08,22,02,53,13.70
2015,08,22,02,54,13.70
2015,08,22,02,56,13.70
2015,08,22,02,57,13.70
2015,08,22,02,58,13.70
2015,08,22,02,59,13.70
2015,08,22,03,01,13.70
2015,08,22,03,02,13.70
2015,08,22,03,03,13.70
2015,08,22,03,04,13.70
2015,08,22,03,06,13.60
2015,08,22,03,07,13.60
2015,08,22,03,08,13.60
2015,08,22,03,09,13.60
2015,08,22,03,11,13.60
2015,08,22,03,12,13.60
2015,08,22,03,13,13.60
2015,08,22,03,14,13.50
2015,08,22,03,16,13.50
2015,08,22,03,17,13.50
2015,08,22,03,18,13.50
2015,08,22,03,19,13.50
2015,08,22,03,21,13.50
2015,08,22,03,22,13.50
2015,08,22,03,23,13.50
2015,08,22,03,24,13.40
2015,08,22,03,26,13.40
2015,08,22,03,27,13.40
2015,08,22,03,28,13.40
2015,08,22,03,29,13.40
2015,08,22,03,31,13.40
2015,08,22,03,32,13.40
2015,08,22,03,33,13.40
2015,08,22,03,34,13.30
2015,08,22,03,36,13.30
2015,08,22,03,37,13.30
2015,08,22,03,38,13.30
2015,08,22,03,39,13.30
2015,08,22,03,41,13.30
2015,08,22,03,42,13.30
2015,08,22,03,43,13.30
2015,08,22,03,44,13.30
2015,08,22,03,46,13.20
2015,08,22,03,47,13.20
2015,08,22,03,48,13.10
2015,08,22,03,49,13.10
2015,08,22,03,51,13.10
2015,08,22,03,52,13.00
2015,08,22,03,53,13.00
2015,08,22,03,54,13.00
2015,08,22,03,56,12.90
2015,08,22,03,57,12.90
2015,08,22,03,58,12.90
2015,08,22,03,59,12.90
2015,08,22,04,01,12.80
2015,08,22,04,02,12.80
2015,08,22,04,03,12.80
2015,08,22,04,04,12.80
2015,08,22,04,05,12.80
2015,08,22,04,06,12.80
2015,08,22,04,07,12.80
2015,08,22,04,08,12.80
2015,08,22,04,09,12.80
2015,08,22,04,10,12.80
2015,08,22,04,12,12.80
2015,08,22,04,14,12.80
2015,08,22,04,16,12.80
2015,08,22,04,17,12.80
2015,08,22,04,18,12.80
2015,08,22,04,19,12.80
2015,08,22,04,21,12.80
2015,08,22,04,22,12.80
2015,08,22,04,23,12.80
2015,08,22,04,24,12.80
2015,08,22,04,26,12.80
2015,08,22,04,27,12.80
2015,08,22,04,28,12.80
2015,08,22,04,29,12.80
2015,08,22,04,31,12.80
2015,08,22,04,32,12.80
2015,08,22,04,33,12.80
2015,08,22,04,34,12.80
2015,08,22,04,36,12.80
2015,08,22,04,37,12.80
2015,08,22,04,38,12.80
2015,08,22,04,39,12.80
2015,08,22,04,41,12.80
2015,08,22,04,42,12.70
2015,08,22,04,43,12.70
2015,08,22,04,44,12.70
2015,08,22,04,46,12.60
2015,08,22,04,47,12.60
2015,08,22,04,48,12.60
2015,08,22,04,49,12.60
2015,08,22,04,51,12.50
2015,08,22,04,52,12.50
2015,08,22,04,53,12.50
2015,08,22,04,54,12.50
2015,08,22,04,56,12.40
2015,08,22,04,57,12.40
2015,08,22,04,58,12.40
2015,08,22,04,59,12.40
2015,08,22,05,01,12.40
2015,08,22,05,02,12.30
2015,08,22,05,03,12.30
2015,08,22,05,04,12.30
2015,08,22,05,06,12.30
2015,08,22,05,07,12.30
2015,08,22,05,08,12.30
2015,08,22,05,09,12.30
2015,08,22,05,11,12.30
2015,08,22,05,12,12.30
2015,08,22,05,13,12.30
2015,08,22,05,14,12.30
2015,08,22,05,16,12.20
2015,08,22,05,17,12.20
2015,08,22,05,18,12.20
2015,08,22,05,19,12.20
2015,08,22,05,21,12.20
2015,08,22,05,22,12.20
2015,08,22,05,23,12.20
2015,08,22,05,24,12.20
2015,08,22,05,26,12.20
2015,08,22,05,27,12.20
2015,08,22,05,28,12.10
2015,08,22,05,29,12.10
2015,08,22,05,31,12.20
2015,08,22,05,32,12.20
2015,08,22,05,33,12.20
2015,08,22,05,34,12.20
2015,08,22,05,36,12.20
2015,08,22,05,37,12.20
2015,08,22,05,38,12.20
2015,08,22,05,39,12.20
2015,08,22,05,41,12.20
2015,08,22,05,42,12.20
2015,08,22,05,43,12.20
2015,08,22,05,44,12.30
2015,08,22,05,46,12.30
2015,08,22,05,47,12.30
2015,08,22,05,48,12.30
2015,08,22,05,49,12.30
2015,08,22,05,51,12.30
2015,08,22,05,52,12.40
2015,08,22,05,53,12.40
2015,08,22,05,54,12.40
2015,08,22,05,56,12.50
2015,08,22,05,57,12.60
2015,08,22,05,58,12.60
2015,08,22,05,59,12.60
2015,08,22,06,01,12.70
2015,08,22,06,02,12.70
2015,08,22,06,03,12.80
2015,08,22,06,04,12.80
2015,08,22,06,06,12.80
2015,08,22,06,07,12.80
2015,08,22,06,08,12.80
2015,08,22,06,09,12.80
2015,08,22,06,11,12.80
2015,08,22,06,12,12.80
2015,08,22,06,13,12.80
2015,08,22,06,14,12.80
2015,08,22,06,15,12.80
2015,08,22,06,16,12.80
2015,08,22,06,17,12.80
2015,08,22,06,18,12.90
2015,08,22,06,19,12.90
2015,08,22,06,20,12.90
2015,08,22,06,21,12.90
2015,08,22,06,22,12.90
2015,08,22,06,23,12.90
2015,08,22,06,24,12.90
2015,08,22,06,25,12.90
2015,08,22,06,26,12.90
2015,08,22,06,27,12.90
2015,08,22,06,28,12.90
2015,08,22,06,29,12.90
2015,08,22,06,30,12.90
2015,08,22,06,31,12.90
2015,08,22,06,32,13.00
2015,08,22,06,33,13.00
2015,08,22,06,34,13.00
2015,08,22,06,35,13.00
2015,08,22,06,36,13.00
2015,08,22,06,37,13.00
2015,08,22,06,38,13.00
2015,08,22,06,39,13.00
2015,08,22,06,40,13.00
2015,08,22,06,41,13.00
2015,08,22,06,42,13.00
2015,08,22,06,43,13.00
2015,08,22,06,44,13.00
2015,08,22,06,45,13.10
2015,08,22,06,46,13.10
2015,08,22,06,47,13.10
2015,08,22,06,48,13.10
2015,08,22,06,49,13.10
2015,08,22,06,50,13.10
2015,08,22,06,52,13.10
2015,08,22,06,53,13.10
2015,08,22,06,54,13.20
2015,08,22,06,56,13.20
2015,08,22,06,57,13.20
2015,08,22,06,58,13.20
2015,08,22,06,59,13.20
2015,08,22,07,01,13.20
2015,08,22,07,02,13.20
2015,08,22,07,03,13.30
2015,08,22,07,04,13.30
2015,08,22,07,06,13.30
2015,08,22,07,07,13.30
2015,08,22,07,08,13.30
2015,08,22,07,09,13.30
2015,08,22,07,11,13.30
2015,08,22,07,12,13.30
2015,08,22,07,13,13.30
2015,08,22,07,14,13.30
2015,08,22,07,16,13.30
2015,08,22,07,17,13.30
2015,08,22,07,18,13.30
2015,08,22,07,19,13.30
2015,08,22,07,21,13.40
2015,08,22,07,22,13.40
2015,08,22,07,23,13.40
2015,08,22,07,24,13.40
2015,08,22,07,26,13.40
2015,08,22,07,27,13.40
2015,08,22,07,28,13.40
2015,08,22,07,29,13.50
2015,08,22,07,31,13.50
2015,08,22,07,32,13.50
2015,08,22,07,33,13.50
2015,08,22,07,34,13.50
2015,08,22,07,36,13.50
2015,08,22,07,37,13.60
2015,08,22,07,38,13.60
2015,08,22,07,39,13.60
2015,08,22,07,41,13.60
2015,08,22,07,42,13.60
2015,08,22,07,43,13.70
2015,08,22,07,44,13.70
2015,08,22,07,46,13.70
2015,08,22,07,47,13.70
2015,08,22,07,48,13.70
2015,08,22,07,49,13.70
2015,08,22,07,51,13.80
2015,08,22,07,52,13.80
2015,08,22,07,53,13.80
2015,08,22,07,54,13.80
2015,08,22,07,56,13.90
2015,08,22,07,57,13.90
2015,08,22,07,58,13.90
2015,08,22,07,59,13.90
2015,08,22,08,01,14.00
2015,08,22,08,02,14.00
2015,08,22,08,03,14.10
2015,08,22,08,04,14.10
2015,08,22,08,06,14.20
2015,08,22,08,07,14.20
2015,08,22,08,08,14.20
2015,08,22,08,09,14.30
2015,08,22,08,11,14.40
2015,08,22,08,12,14.40
2015,08,22,08,13,14.50
2015,08,22,08,14,14.50
2015,08,22,08,16,14.60
2015,08,22,08,17,14.70
2015,08,22,08,18,14.70
2015,08,22,08,19,14.80
2015,08,22,08,21,14.80
2015,08,22,08,22,14.90
2015,08,22,08,23,14.90
2015,08,22,08,24,14.90
2015,08,22,08,26,15.00
2015,08,22,08,27,15.10
2015,08,22,08,28,15.10
2015,08,22,08,29,15.20
2015,08,22,08,31,15.30
2015,08,22,08,32,15.30
2015,08,22,08,33,15.30
2015,08,22,08,34,15.30
2015,08,22,08,36,15.40
2015,08,22,08,37,15.50
2015,08,22,08,38,15.50
2015,08,22,08,39,15.60
2015,08,22,08,41,15.60
2015,08,22,08,42,15.70
2015,08,22,08,43,15.70
2015,08,22,08,44,15.80
2015,08,22,08,46,15.80
2015,08,22,08,47,15.80
2015,08,22,08,48,15.80
2015,08,22,08,49,15.90
2015,08,22,08,51,15.90
2015,08,22,08,52,15.90
2015,08,22,08,53,15.90
2015,08,22,08,54,16.10
2015,08,22,08,55,16.10
2015,08,22,08,56,16.10
2015,08,22,08,57,16.10
2015,08,22,08,58,16.10
2015,08,22,08,59,16.10
2015,08,22,09,00,16.10
2015,08,22,09,01,16.10
2015,08,22,09,02,16.10
2015,08,22,09,03,16.20
2015,08,22,09,04,16.20
2015,08,22,09,05,16.20
2015,08,22,09,06,16.20
2015,08,22,09,07,16.30
2015,08,22,09,08,16.30
2015,08,22,09,09,16.30
2015,08,22,09,10,16.40
2015,08,22,09,11,16.40
2015,08,22,09,12,16.40
2015,08,22,09,13,16.60
2015,08,22,09,14,16.60
2015,08,22,09,15,16.60
2015,08,22,09,16,16.70
2015,08,22,09,17,16.70
2015,08,22,09,18,16.70
2015,08,22,09,19,16.70
2015,08,22,09,20,16.80
2015,08,22,09,21,16.80
2015,08,22,09,22,16.80
2015,08,22,09,23,16.80
2015,08,22,09,24,16.90
2015,08,22,09,25,16.90
2015,08,22,09,26,16.90
2015,08,22,09,27,17.00
2015,08,22,09,28,17.00
2015,08,22,09,29,17.10
2015,08,22,09,30,17.20
2015,08,22,09,31,17.20
2015,08,22,09,32,17.20
2015,08,22,09,33,17.30
2015,08,22,09,34,17.30
2015,08,22,09,35,17.30
2015,08,22,09,36,17.40
2015,08,22,09,37,17.40
2015,08,22,09,38,17.50
2015,08,22,09,39,17.50
2015,08,22,09,40,17.60
2015,08,22,09,41,17.60
2015,08,22,09,42,17.70
2015,08,22,09,43,17.80
2015,08,22,09,44,17.90
2015,08,22,09,46,17.90
2015,08,22,09,47,17.90
2015,08,22,09,49,17.90
2015,08,22,09,52,18.10
2015,08,22,09,53,18.10
2015,08,22,09,54,18.20
2015,08,22,09,56,18.20
2015,08,22,09,57,18.20
2015,08,22,09,58,18.20
2015,08,22,09,59,18.20
2015,08,22,10,01,18.20
2015,08,22,10,02,18.30
2015,08,22,10,03,18.30
2015,08,22,10,04,18.30
2015,08,22,10,06,18.20
2015,08,22,10,07,18.20
2015,08,22,10,08,18.20
2015,08,22,10,09,18.20
2015,08,22,10,11,18.10
2015,08,22,10,12,18.10
2015,08,22,10,13,17.90
2015,08,22,10,14,17.90
2015,08,22,10,16,17.90
2015,08,22,10,17,17.90
2015,08,22,10,18,17.90
2015,08,22,10,19,17.90
2015,08,22,10,21,17.90
2015,08,22,10,22,17.90
2015,08,22,10,23,17.80
2015,08,22,10,24,17.80
2015,08,22,10,26,17.80
2015,08,22,10,27,17.70
2015,08,22,10,28,17.70
2015,08,22,10,29,17.70
2015,08,22,10,31,17.80
2015,08,22,10,32,17.80
2015,08,22,10,33,17.80
2015,08,22,10,34,17.90
2015,08,22,10,36,17.90
2015,08,22,10,37,17.90
2015,08,22,10,38,17.90
2015,08,22,10,39,17.90
2015,08,22,10,41,17.90
2015,08,22,10,42,17.90
2015,08,22,10,43,18.10
2015,08,22,10,44,18.10
2015,08,22,10,46,18.10
2015,08,22,10,47,18.20
2015,08,22,10,48,18.20
2015,08,22,10,49,18.20
2015,08,22,10,51,18.20
2015,08,22,10,52,18.20
2015,08,22,10,53,18.20
2015,08,22,10,54,18.20
2015,08,22,10,56,18.20
2015,08,22,10,57,18.20
2015,08,22,10,58,18.20
2015,08,22,10,59,18.10
2015,08,22,11,01,18.20
2015,08,22,11,02,18.20
2015,08,22,11,03,18.30
2015,08,22,11,04,18.30
2015,08,22,11,06,18.60
2015,08,22,11,07,18.70
2015,08,22,11,08,18.80
2015,08,22,11,09,18.90
2015,08,22,11,11,18.90
2015,08,22,11,12,19.10
2015,08,22,11,13,19.10
2015,08,22,11,14,19.10
2015,08,22,11,16,19.30
2015,08,22,11,17,19.40
2015,08,22,11,18,19.40
2015,08,22,11,19,19.50
2015,08,22,11,21,19.50
2015,08,22,11,22,19.60
2015,08,22,11,23,19.60
2015,08,22,11,24,19.60
2015,08,22,11,26,19.70
2015,08,22,11,27,19.70
2015,08,22,11,28,19.70
2015,08,22,11,29,19.70
2015,08,22,11,31,19.70
2015,08,22,11,32,19.80
2015,08,22,11,33,19.80
2015,08,22,11,34,19.80
2015,08,22,11,36,19.90
2015,08,22,11,37,19.90
2015,08,22,11,38,19.90
2015,08,22,11,39,19.90
2015,08,22,11,41,19.90
2015,08,22,11,42,20.10
2015,08,22,11,43,20.20
2015,08,22,11,44,20.20
2015,08,22,11,46,20.20
2015,08,22,11,47,20.30
2015,08,22,11,48,20.30
2015,08,22,11,49,20.40
2015,08,22,11,51,20.50
2015,08,22,11,52,20.50
2015,08,22,11,53,20.60
2015,08,22,11,54,20.60
2015,08,22,11,55,20.60
2015,08,22,11,56,20.60
2015,08,22,11,57,20.60
2015,08,22,11,58,20.60
2015,08,22,11,59,20.70
2015,08,22,12,00,20.80
2015,08,22,12,01,20.90
2015,08,22,12,02,20.90
2015,08,22,12,03,20.90
2015,08,22,12,04,20.90
2015,08,22,12,05,20.90
2015,08,22,12,06,20.90
2015,08,22,12,07,20.90
2015,08,22,12,08,20.90
2015,08,22,12,09,20.90
2015,08,22,12,10,20.90
2015,08,22,12,11,20.90
2015,08,22,12,12,20.90
2015,08,22,12,13,20.90
2015,08,22,12,14,20.90
2015,08,22,12,15,20.90
2015,08,22,12,16,21.00
2015,08,22,12,17,21.00
2015,08,22,12,18,21.00
2015,08,22,12,19,21.00
2015,08,22,12,20,21.10
2015,08,22,12,21,21.10
2015,08,22,12,22,21.20
2015,08,22,12,23,21.20
2015,08,22,12,24,21.30
2015,08,22,12,25,21.30
2015,08,22,12,26,21.30
2015,08,22,12,27,21.30
2015,08,22,12,28,21.30
2015,08,22,12,29,21.40
2015,08,22,12,30,21.40
2015,08,22,12,31,21.40
2015,08,22,12,32,21.40
2015,08,22,12,33,21.40
2015,08,22,12,34,21.40
2015,08,22,12,35,21.40
2015,08,22,12,36,21.40
2015,08,22,12,37,21.40
2015,08,22,12,38,21.40
2015,08,22,12,39,21.40
2015,08,22,12,40,21.40
2015,08,22,12,42,21.60
2015,08,22,12,43,21.60
2015,08,22,12,44,21.60
2015,08,22,12,45,21.60
2015,08,22,12,47,21.60
2015,08,22,12,48,21.60
2015,08,22,12,49,21.60
2015,08,22,12,51,21.60
2015,08,22,12,52,21.60
2015,08,22,12,53,21.60
2015,08,22,12,54,21.70
2015,08,22,12,56,21.80
2015,08,22,12,57,21.80
2015,08,22,12,58,21.80
2015,08,22,12,59,21.90
2015,08,22,13,01,22.00
2015,08,22,13,02,22.00
2015,08,22,13,03,22.10
2015,08,22,13,04,22.20
2015,08,22,13,06,22.10
2015,08,22,13,07,22.00
2015,08,22,13,08,21.90
2015,08,22,13,09,21.70
2015,08,22,13,11,21.60
2015,08,22,13,12,21.40
2015,08,22,13,13,21.40
2015,08,22,13,14,21.40
2015,08,22,13,16,21.60
2015,08,22,13,17,21.60
2015,08,22,13,18,21.60
2015,08,22,13,19,21.60
2015,08,22,13,21,21.70
2015,08,22,13,22,21.80
2015,08,22,13,23,21.80
2015,08,22,13,24,21.90
2015,08,22,13,26,22.10
2015,08,22,13,27,22.20
2015,08,22,13,28,22.30
2015,08,22,13,29,22.30
2015,08,22,13,31,22.50
2015,08,22,13,32,22.60
2015,08,22,13,33,22.70
2015,08,22,13,34,22.70
2015,08,22,13,36,22.60
2015,08,22,13,37,22.50
2015,08,22,13,38,22.40
2015,08,22,13,39,22.30
2015,08,22,13,41,22.10
2015,08,22,13,42,22.10
2015,08,22,13,43,22.00
2015,08,22,13,44,22.00
2015,08,22,13,46,22.10
2015,08,22,13,47,22.00
2015,08,22,13,48,22.00
2015,08,22,13,49,21.90
2015,08,22,13,51,21.90
2015,08,22,13,52,21.90
2015,08,22,13,53,21.90
2015,08,22,13,54,21.90
2015,08,22,13,56,21.80
2015,08,22,13,57,21.70
2015,08,22,13,58,21.60
2015,08,22,13,59,21.60
2015,08,22,14,01,21.60
2015,08,22,14,02,21.30
2015,08,22,14,03,21.30
2015,08,22,14,04,21.20
2015,08,22,14,06,21.00
2015,08,22,14,07,21.00
2015,08,22,14,08,20.90
2015,08,22,14,09,20.90
2015,08,22,14,11,20.80
2015,08,22,14,12,20.80
2015,08,22,14,13,20.70
2015,08,22,14,14,20.70
2015,08,22,14,16,20.60
2015,08,22,14,17,20.60
2015,08,22,14,18,20.60
2015,08,22,14,19,20.60
2015,08,22,14,21,20.60
2015,08,22,14,22,20.60
2015,08,22,14,23,20.60
2015,08,22,14,24,20.60
2015,08,22,14,26,20.60
2015,08,22,14,27,20.60
2015,08,22,14,28,20.60
2015,08,22,14,29,20.60
2015,08,22,14,31,20.50
2015,08,22,14,32,20.50
2015,08,22,14,33,20.40
2015,08,22,14,34,20.30
2015,08,22,14,36,20.30
2015,08,22,14,37,20.30
2015,08,22,14,38,20.40
2015,08,22,14,39,20.40
2015,08,22,14,41,20.50
2015,08,22,14,42,20.60
2015,08,22,14,43,20.60
2015,08,22,14,44,20.70
2015,08,22,14,46,20.80
2015,08,22,14,47,20.80
2015,08,22,14,48,20.80
2015,08,22,14,49,20.90
2015,08,22,14,51,21.00
2015,08,22,14,52,21.00
2015,08,22,14,53,21.00
2015,08,22,14,54,21.00
2015,08,22,14,55,21.00
2015,08,22,14,56,21.00
2015,08,22,14,57,21.00
2015,08,22,14,58,21.10
2015,08,22,14,59,21.10
2015,08,22,15,00,21.10
2015,08,22,15,01,21.10
2015,08,22,15,02,21.10
2015,08,22,15,03,21.10
2015,08,22,15,04,21.20
2015,08,22,15,05,21.20
2015,08,22,15,06,21.20
2015,08,22,15,07,21.10
2015,08,22,15,08,21.10
2015,08,22,15,09,21.10
2015,08,22,15,10,21.10
2015,08,22,15,11,21.10
2015,08,22,15,12,21.10
2015,08,22,15,13,21.20
2015,08,22,15,14,21.20
2015,08,22,15,15,21.20
2015,08,22,15,16,21.30
2015,08,22,15,17,21.30
2015,08,22,15,18,21.30
2015,08,22,15,19,21.30
2015,08,22,15,20,21.30
2015,08,22,15,21,21.30
2015,08,22,15,22,21.30
2015,08,22,15,23,21.30
2015,08,22,15,24,21.30
2015,08,22,15,25,21.30
2015,08,22,15,26,21.30
2015,08,22,15,27,21.30
2015,08,22,15,28,21.40
2015,08,22,15,29,21.60
2015,08,22,15,30,21.60
2015,08,22,15,31,21.60
2015,08,22,15,32,21.70
2015,08,22,15,33,21.80
2015,08,22,15,34,21.80
2015,08,22,15,35,21.90
2015,08,22,15,36,21.90
2015,08,22,15,38,22.00
2015,08,22,15,39,22.00
2015,08,22,15,41,22.10
2015,08,22,15,42,22.10
2015,08,22,15,43,22.10
2015,08,22,15,44,22.10
2015,08,22,15,46,22.00
2015,08,22,15,47,22.00
2015,08,22,15,48,22.00
2015,08,22,15,49,22.00
2015,08,22,15,51,22.00
2015,08,22,15,52,22.00
2015,08,22,15,53,22.10
2015,08,22,15,54,22.10
2015,08,22,15,56,22.10
2015,08,22,15,57,22.10
2015,08,22,15,58,22.10
2015,08,22,15,59,22.10
2015,08,22,16,01,22.20
2015,08,22,16,02,22.20
2015,08,22,16,03,22.30
2015,08,22,16,04,22.30
2015,08,22,16,06,22.40
2015,08,22,16,07,22.40
2015,08,22,16,08,22.40
2015,08,22,16,09,22.40
2015,08,22,16,11,22.40
2015,08,22,16,12,22.40
2015,08,22,16,13,22.40
2015,08,22,16,14,22.40
2015,08,22,16,16,22.40
2015,08,22,16,17,22.40
2015,08,22,16,18,22.40
2015,08,22,16,19,22.40
2015,08,22,16,21,22.30
2015,08,22,16,22,22.30
2015,08,22,16,23,22.30
2015,08,22,16,24,22.30
2015,08,22,16,26,22.40
2015,08,22,16,27,22.40
2015,08,22,16,28,22.40
2015,08,22,16,29,22.40
2015,08,22,16,31,22.40
2015,08,22,16,32,22.40
2015,08,22,16,33,22.50
2015,08,22,16,34,22.50
2015,08,22,16,36,22.60
2015,08,22,16,37,22.60
2015,08,22,16,38,22.60
2015,08,22,16,39,22.60
2015,08,22,16,41,22.70
2015,08,22,16,42,22.80
2015,08,22,16,43,22.80
2015,08,22,16,44,22.80
2015,08,22,16,46,22.90
2015,08,22,16,47,22.90
2015,08,22,16,48,22.90
2015,08,22,16,49,22.80
2015,08,22,16,51,22.80
2015,08,22,16,52,22.80
2015,08,22,16,53,22.70
2015,08,22,16,54,22.60
2015,08,22,16,56,22.60
2015,08,22,16,57,22.60
2015,08,22,16,58,22.60
2015,08,22,16,59,22.60
2015,08,22,17,01,22.60
2015,08,22,17,02,22.60
2015,08,22,17,03,22.60
2015,08,22,17,04,22.60
2015,08,22,17,06,22.60
2015,08,22,17,07,22.60
2015,08,22,17,08,22.50
2015,08,22,17,09,22.40
2015,08,22,17,11,22.40
2015,08,22,17,12,22.30
2015,08,22,17,13,22.30
2015,08,22,17,14,22.20
2015,08,22,17,16,22.10
2015,08,22,17,17,22.00
2015,08,22,17,18,22.00
2015,08,22,17,19,21.90
2015,08,22,17,21,21.80
2015,08,22,17,22,21.70
2015,08,22,17,23,21.70
2015,08,22,17,24,21.60
2015,08,22,17,26,21.60
2015,08,22,17,27,21.60
2015,08,22,17,28,21.60
2015,08,22,17,29,21.60
2015,08,22,17,31,21.60
2015,08,22,17,32,21.70
2015,08,22,17,33,21.70
2015,08,22,17,34,21.80
2015,08,22,17,36,21.90
2015,08,22,17,37,22.00
2015,08,22,17,38,22.10
2015,08,22,17,39,22.10
2015,08,22,17,41,22.30
2015,08,22,17,42,22.40
2015,08,22,17,43,22.50
2015,08,22,17,44,22.60
2015,08,22,17,46,22.70
2015,08,22,17,47,22.80
2015,08,22,17,48,22.90
2015,08,22,17,49,22.90
2015,08,22,17,50,22.90
2015,08,22,17,51,23.10
2015,08,22,17,52,23.20
2015,08,22,17,53,23.20
2015,08,22,17,54,23.30
2015,08,22,17,55,23.30
2015,08,22,17,56,23.30
2015,08,22,17,57,23.30
2015,08,22,17,58,23.30
2015,08,22,17,59,23.40
2015,08,22,18,00,23.40
2015,08,22,18,01,23.40
2015,08,22,18,02,23.40
2015,08,22,18,03,23.60
2015,08,22,18,04,23.60
2015,08,22,18,05,23.70
2015,08,22,18,06,23.70
2015,08,22,18,07,23.70
2015,08,22,18,08,23.70
2015,08,22,18,09,23.70
2015,08,22,18,10,23.70
2015,08,22,18,11,23.80
2015,08,22,18,12,23.80
2015,08,22,18,13,23.80
2015,08,22,18,14,23.80
2015,08,22,18,15,23.80
2015,08,22,18,16,23.80
2015,08,22,18,17,23.80
2015,08,22,18,18,23.80
2015,08,22,18,19,23.80
2015,08,22,18,20,23.80
2015,08,22,18,21,23.80
2015,08,22,18,22,23.80
2015,08,22,18,23,23.80
2015,08,22,18,24,23.80
2015,08,22,18,25,23.80
2015,08,22,18,26,23.80
2015,08,22,18,27,23.70
2015,08,22,18,28,23.70
2015,08,22,18,29,23.70
2015,08,22,18,31,23.60
2015,08,22,18,32,23.60
2015,08,22,18,33,23.60
2015,08,22,18,34,23.60
2015,08,22,18,36,23.60
2015,08,22,18,37,23.60
2015,08,22,18,38,23.60
2015,08,22,18,39,23.60
2015,08,22,18,41,23.40
2015,08,22,18,42,23.40
2015,08,22,18,43,23.40
2015,08,22,18,44,23.40
2015,08,22,18,46,23.40
2015,08,22,18,47,23.30
2015,08,22,18,48,23.30
2015,08,22,18,49,23.30
2015,08,22,18,51,23.30
2015,08,22,18,52,23.30
2015,08,22,18,53,23.20
2015,08,22,18,54,23.20
2015,08,22,18,56,23.10
2015,08,22,18,57,22.90
2015,08,22,18,58,22.90
2015,08,22,18,59,22.90
2015,08,22,19,01,22.80
2015,08,22,19,02,22.70
2015,08,22,19,03,22.60
2015,08,22,19,04,22.50
2015,08,22,19,06,22.30
2015,08,22,19,07,22.20
2015,08,22,19,08,22.10
2015,08,22,19,09,21.90
2015,08,22,19,11,21.70
2015,08,22,19,12,21.60
2015,08,22,19,13,21.40
2015,08,22,19,14,21.30
2015,08,22,19,16,21.10
2015,08,22,19,17,21.00
2015,08,22,19,18,20.90
2015,08,22,19,19,20.90
2015,08,22,19,21,20.70
2015,08,22,19,22,20.60
2015,08,22,19,23,20.60
2015,08,22,19,24,20.50
2015,08,22,19,26,20.40
2015,08,22,19,27,20.30
2015,08,22,19,28,20.30
2015,08,22,19,29,20.20
2015,08,22,19,31,20.20
2015,08,22,19,32,20.20
2015,08,22,19,33,20.10
2015,08,22,19,34,20.10
2015,08,22,19,36,20.10
2015,08,22,19,37,19.90
2015,08,22,19,38,19.90
2015,08,22,19,39,19.90
2015,08,22,19,41,19.90
2015,08,22,19,42,19.80
2015,08,22,19,43,19.80
2015,08,22,19,44,19.80
2015,08,22,19,46,19.70
2015,08,22,19,47,19.70
2015,08,22,19,48,19.70
2015,08,22,19,49,19.60
2015,08,22,19,51,19.60
2015,08,22,19,52,19.60
2015,08,22,19,53,19.60
2015,08,22,19,54,19.60
2015,08,22,19,56,19.50
2015,08,22,19,57,19.50
2015,08,22,19,58,19.50
2015,08,22,19,59,19.50
2015,08,22,20,01,19.40
2015,08,22,20,02,19.40
2015,08,22,20,03,19.30
2015,08,22,20,04,19.30
2015,08,22,20,06,19.20
2015,08,22,20,07,19.20
2015,08,22,20,08,19.10
2015,08,22,20,09,19.10
2015,08,22,20,11,19.10
2015,08,22,20,12,19.10
2015,08,22,20,13,19.10
2015,08,22,20,14,18.90
2015,08,22,20,16,18.90
2015,08,22,20,17,18.80
2015,08,22,20,18,18.70
2015,08,22,20,19,18.60
2015,08,22,20,21,18.40
2015,08,22,20,22,18.30
2015,08,22,20,23,18.20
2015,08,22,20,24,18.20
2015,08,22,20,26,17.90
2015,08,22,20,28,17.90
2015,08,22,20,29,17.80
2015,08,22,20,31,17.70
2015,08,22,20,32,17.60
2015,08,22,20,33,17.60
2015,08,22,20,34,17.50
2015,08,22,20,36,17.40
2015,08,22,20,37,17.40
2015,08,22,20,38,17.30
2015,08,22,20,39,17.30
2015,08,22,20,41,17.30
2015,08,22,20,42,17.30